EW8487 Weather Reports


time (UTC)temp
C
wind
direction
speed
KPH
gust
KPH
rain 1hr
cm
rain 24hr
cm
rain mn
cm
humidity
%
barometer
mb
20260504045555 8 281 0.0 1.6 0.00 0.05 0.00 99 1009.8
20260504044055 8 251 0.0 1.6 0.00 0.05 0.00 99 1009.8
20260504042555 8 241 0.0 1.6 0.00 0.05 0.00 99 1009.6
20260504041054 9 252 0.0 1.6 0.00 0.05 0.00 99 1009.7
20260504035556 9 272 1.6 1.6 0.00 0.05 0.00 99 1010.0
20260504034055 10 268 1.6 1.6 0.00 0.05 0.00 99 1009.8
20260504032555 10 276 0.0 1.6 0.00 0.05 0.00 99 1010.1
20260504031054 10 232 0.0 1.6 0.00 0.05 0.00 99 1010.2
20260504025555 10 263 0.0 1.6 0.00 0.05 0.00 98 1010.0
20260504021055 10 267 0.0 1.6 0.00 0.05 0.00 98 1010.5
20260504015555 10 300 0.0 1.6 0.00 0.05 0.00 98 1010.5
20260504014055 10 262 0.0 1.6 0.00 0.05 0.00 98 1010.6
20260504012555 11 229 0.0 1.6 0.00 0.05 0.00 97 1010.5
20260504011055 10 302 0.0 1.6 0.00 0.05 0.00 96 1010.5
20260504005556 10 256 0.0 1.6 0.00 0.05 0.00 96 1010.7
20260504004055 11 242 0.0 1.6 0.00 0.05 0.00 96 1010.7
20260504002556 11 250 0.0 1.6 0.00 0.05 0.00 95 1011.0
20260504001055 11 213 0.0 1.6 0.00 0.05 0.00 95 1010.9
20260503235555 11 232 0.0 1.6 0.00 0.05 0.00 94 1010.8
20260503234055 11 251 0.0 1.6 0.00 0.05 0.00 94 1010.9
20260503232555 11 273 1.6 1.6 0.00 0.05 0.00 95 1011.0
20260503231055 12 234 0.0 1.6 0.00 0.05 0.00 95 1011.1
20260503225555 12 240 0.0 1.6 0.00 0.05 0.00 93 1011.1
20260503224055 12 356 0.0 1.6 0.00 0.05 0.00 88 1011.3
20260503222554 12 346 0.0 1.6 0.00 0.05 0.00 88 1011.1
20260503221056 12 222 0.0 1.6 0.00 0.05 0.00 89 1011.3
20260503214121 12 147 0.0 1.6 0.00 0.05 0.05 90 1011.3
20260503211106 11 226 1.6 1.6 0.00 0.05 0.05 91 1011.4
20260503204055 12 249 0.0 0.0 0.00 0.05 0.05 90 1011.0
20260503202556 12 249 0.0 0.0 0.00 0.05 0.05 88 1010.6
20260503201054 12 240 0.0 1.6 0.00 0.05 0.05 87 1010.6
20260503195555 13 242 0.0 1.6 0.00 0.05 0.05 85 1010.5
20260503194059 13 292 0.0 1.6 0.00 0.05 0.05 84 1010.2
20260503192555 14 266 0.0 1.6 0.00 0.05 0.05 82 1010.1
20260503191055 15 218 0.0 1.6 0.00 0.05 0.05 80 1010.3
20260503185556 16 277 0.0 1.6 0.00 0.05 0.05 73 1010.0
20260503184055 16 253 1.6 1.6 0.00 0.05 0.05 71 1009.9
20260503182556 17 267 1.6 1.6 0.00 0.05 0.05 69 1009.6
20260503181055 17 237 0.0 1.6 0.00 0.05 0.05 72 1009.8
20260503174056 17 174 0.0 1.6 0.00 0.05 0.05 77 1009.5
20260503172555 17 197 0.0 1.6 0.00 0.05 0.05 77 1009.7
20260503171056 18 104 0.0 1.6 0.00 0.05 0.05 76 1009.6
20260503131055 17 257 1.6 1.6 0.00 0.00 0.00 80 1010.8
20260503081055 11 225 0.0 3.2 0.00 0.00 0.00 98 1012.7
20260503072555 12 21 0.0 1.6 0.00 0.00 0.00 94 1012.2